Location: ???? ??
(36.0534°N, 43.5630°E)
Time: 03:42:03
(UTC+00:00)

Nadezhda 1 Rocket - Pass Details

Date: 18 September 2019
Orbit: 942 x 1005 km, 83.0° (Epoch: 18 October)

Event Time Altitude Azimuth Distance (km) Brightness Sun altitude
Rises 15:56:16 0° 177° (S) 3,600 6.8 -10.3°
Reaches altitude 10° 15:58:45 10° 175° (S) 2,654 6.1 -10.8°
Maximum altitude 16:04:45 68° 93° (E) 1,013 3.9 -11.9°
Drops below altitude 10° 16:10:46 10° 12° (NNE) 2,667 6.3 -13.1°
Sets 16:13:16 0° 10° (N) 3,619 7.0 -13.6°
